Location: ??????
(38.0131°N, 23.7723°E)
Time: 02:01:15
(UTC+00:00)

Cosmos 1953 - Pass Details

Date: 17 October 2021
Orbit: 537 x 557 km, 82.5° (Epoch: 04 December)

Event Time Altitude Azimuth Distance (km) Brightness Sun altitude
Rises 16:27:03 0° 176° (S) 2,714 5.9 -9.1°
Reaches altitude 10° 16:29:14 10° 171° (S) 1,827 4.9 -9.6°
Maximum altitude 16:33:10 55° 94° (E) 673 2.4 -10.3°
Drops below altitude 10° 16:37:09 10° 17° (NNE) 1,848 4.8 -11.1°
Sets 16:39:21 0° 13° (NNE) 2,749 5.7 -11.6°
